www.pogodaiklimat.ru

Погода и климат >> Архив погоды >> Россия >> Якутия >> Агаякан


ПОГОДА в Агаякане

  • Прогноз погоды в Агаякане
  • Монитор погоды в Агаякане
  • Климат города

АРХИВ ПОГОДЫ в Агаякане

Время (UTC), дата Ветер
(напр.,м/с)
 
Видим.   Явления Облачность Т
(С)
Тd
(С)
f
(%)
Тe
(С)
Тes
(С)
Комфортность P
(гПа)
Po
(гПа)
Тmin
(С)
Tmax
(С)
R
(мм)
R24
(мм)
S
(см)
12 11.12 штиль 0 20 км 10/0
[Ac As]
-40.3 -42.1 83 -40 -40 опасность
обморожения
1052.6 940.2
15 11.12 штиль 0 20 км 10/0
[Ac As]
-39.8 -41.6 83 -40 -40 опасность
обморожения
1051.4 939.4
18 11.12 штиль 0 20 км 4/0
[Ac As]
-39.3 -41.1 83 -39 -39 опасность
обморожения
1050.3 938.5
21 11.12 штиль 0 20 км 4/0
[Ac As]
-41.4 -43.2 83 -41 -41 опасность
обморожения
1051.1 938.4 -41.8 24
00 12.12 штиль 0 50 км 4/0
[Ci fib]
-44.6 -45.9 87 -45 -45 опасность
обморожения
1050.9 938.3 -45.0
03 12.12 штиль 0 50 км 4/0
[Ac As]
-40.8 -42.6 83 -41 -41 опасность
обморожения
1050.2 937.9
06 12.12 штиль 0 50 км 3/0
[Cs]
-40.6 -42.1 85 -41 -41 опасность
обморожения
1049.4 937.3
09 12.12 штиль 0 20 км 8/0
[Cs]
-40.4 -42.9 77 -40 -40 опасность
обморожения
1049.7 937.6 -40.4
12 12.12 штиль 0 20 км 6/0
[Cs]
-41.0 -42.6 84 -41 -41 опасность
обморожения
1049.5 937.2
15 12.12 штиль 0 20 км 6/0
[Cs]
-41.6 -43.2 84 -42 -42 опасность
обморожения
1050.0 937.4
18 12.12 штиль 0 20 км ясно -42.4 -43.8 86 -42 -42 опасность
обморожения
1050.4 937.4
21 12.12 штиль 0 20 км ясно -44.4 -45.9 85 -44 -44 опасность
обморожения
1050.4 936.4 -44.5 24
00 13.12 штиль 0 50 км 6/0
[Ac As]
-40.6 -42.1 85 -41 -41 опасность
обморожения
1048.8 936.7
03 13.12 штиль 0 50 км 8/0
[Ac As]
-36.7 -38.2 86 -37 -37 опасность
обморожения
1046.0 935.8
06 13.12 штиль 0 50 км 10/0
[As op]
-36.0 -37.8 83 -36 -36 опасность
обморожения
1044.3 934.7
09 13.12 штиль 0 20 км 10/0
[As op]
-35.3 -37.1 83 -35 -35 опасность
обморожения
1042.7 933.5 -35.2
12 13.12 штиль 0 20 км слабый снег 10/0
[As trans Cs]
-34.4 -35.6 89 -34 -34 опасность
обморожения
1041.9 933.3
15 13.12 штиль 0 20 км слабый снег 8/0
[Cs]
-36.3 -37.2 91 -36 -36 опасность
обморожения
1042.1 932.5
18 13.12 штиль 0 20 км {снег} 8/0
[Cs]
-37.0 -38.5 86 -37 -37 опасность
обморожения
1041.6 931.8
21 13.12 штиль 0 20 км 3/0
[Cs]
-39.8 -41.6 83 -40 -40 опасность
обморожения
1043.1 932.0 -41.1 1 25
00 14.12 штиль 0 50 км 8/0
[As trans]
-36.4 -37.6 89 -36 -36 опасность
обморожения
1040.3 931.0
03 14.12 штиль 0 50 км 4/0
[Ci fib]
-36.8 -38.7 82 -37 -37 опасность
обморожения
1040.6 931.1
06 14.12 штиль 0 50 км 8/0
[Ac As]
-37.3 -38.4 89 -37 -37 опасность
обморожения
1040.5 930.7
09 14.12 штиль 0 20 км 3/0
[Ac As]
-39.3 -40.5 88 -39 -39 опасность
обморожения
1040.0 929.4 -36.4
12 14.12 штиль 0 20 км ясно -43.3 -44.6 87 -43 -43 опасность
обморожения
1041.8 929.2
15 14.12 штиль 0 20 км ясно -44.8 -46.7 81 -45 -45 опасность
обморожения
1041.2 928.0
18 14.12 штиль 0 20 км ясно -44.5 -45.9 86 -45 -45 опасность
обморожения
1038.9 926.1
21 14.12 штиль 0 20 км 4/0
[Ac As]
-42.4 -43.8 86 -42 -42 опасность
обморожения
1035.0 923.5 -45.0 25
00 15.12 штиль 0 10 км слабый снег 10/0
[As op]
-37.0 -38.5 86 -37 -37 опасность
обморожения
1029.9 921.4
03 15.12 штиль 0 10 км слабый снег 10/0
[As op]
-36.4 -38.2 83 -36 -36 опасность
обморожения
1028.4 920.3
06 15.12 штиль 0 50 км {снег} 10/0
[Ac As]
-35.8 -36.9 90 -36 -36 опасность
обморожения
1027.3 919.5
09 15.12 штиль 0 20 км 10/0
[As op]
-35.4 -36.6 89 -35 -35 опасность
обморожения
1026.2 918.7 -35.3 0.9
12 15.12 штиль 0 20 км слабый снег 10/0
[Ac As]
-34.8 -35.9 90 -35 -35 опасность
обморожения
1026.8 919.5
15 15.12 штиль 0 20 км {снег} 8/0
[Cs]
-35.7 -36.9 89 -36 -36 опасность
обморожения
1026.7 919.0
18 15.12 штиль 0 20 км {снег} 8/0
[Cs]
-36.4 -37.6 89 -36 -36 опасность
обморожения
1026.5 918.6
21 15.12 штиль 0 20 км 8/0
[Cs]
-44.6 -45.3 93 -45 -45 опасность
обморожения
1032.7 920.5 -44.6 1 27
00 16.12 штиль 0 50 км 8/0
[Cs]
-42.3 -43.3 90 -42 -42 опасность
обморожения
1031.2 920.2
03 16.12 штиль 0 50 км 6/0
[Ac As Cs]
-42.2 -45.4 71 -42 -42 опасность
обморожения
1030.9 920.0
06 16.12 штиль 0 50 км 4/0
[As trans]
-44.4 -45.9 85 -44 -44 опасность
обморожения
1032.4 920.4
09 16.12 штиль 0 20 км 4/0
[Ci sp]
-45.6 -47.6 80 -46 -46 опасность
обморожения
1033.0 920.4 -42.5
12 16.12 штиль 0 20 км 6/0
[Cs]
-42.8 -44.4 84 -43 -43 опасность
обморожения
1030.9 919.7
15 16.12 штиль 0 20 км 10/0
[Cs]
-39.8 -41.6 83 -40 -40 опасность
обморожения
1028.9 918.9
18 16.12 штиль 0 20 км слабый снег 10/0
[As trans Cs]
-37.3 -38.4 89 -37 -37 опасность
обморожения
1026.6 918.3
21 16.12 штиль 0 20 км слабый снег 10/0
[Cs]
-36.8 -38.0 89 -37 -37 опасность
обморожения
1026.6 918.5 -46.0 0.7 28
00 17.12 штиль 0 50 км {снег} 8/0
[Cs]
-38.3 -39.2 91 -38 -38 опасность
обморожения
1027.5 918.6
03 17.12 штиль 0 50 км 6/0
[Ci fib]
-41.3 -42.6 87 -41 -41 опасность
обморожения
1029.3 918.9
06 17.12 штиль 0 50 км 3/0
[Ci fib]
-42.3 -43.8 85 -42 -42 опасность
обморожения
1029.7 918.8
09 17.12 штиль 0 50 км ясно -45.4 -46.7 87 -45 -45 опасность
обморожения
1032.4 919.9 -38.5 0.0
12 17.12 штиль 0 20 км ясно -46.9 -48.5 84 -47 -47 опасность
обморожения
1034.2 920.7
15 17.12 штиль 0 20 км ясно -48.4 -49.5 88 -48 -48 опасность
обморожения
1035.0 920.8
18 17.12 штиль 0 20 км ясно -49.4 -50.7 86 -49 -49 опасность
обморожения
1035.0 920.4
21 17.12 штиль 0 20 км ясно -49.8 -50.7 90 -50 -50 опасность
обморожения
1034.9 920.1 -50.4 28
00 18.12 штиль 0 50 км ясно -49.6 -50.7 88 -50 -50 опасность
обморожения
1034.4 919.7
03 18.12 штиль 0 50 км 4/0
[Ci fib]
-48.4 -49.5 88 -48 -48 опасность
обморожения
1033.2 919.2
06 18.12 штиль 0 50 км 6/0
[Cs]
-46.6 -48.2 84 -47 -47 опасность
обморожения
1030.2 917.4
09 18.12 штиль 0 20 км 6/0
[Cs]
-47.0 -48.5 84 -47 -47 опасность
обморожения
1030.0 917.0 -46.6

 

Местоположение метеостанции Агаякан (Якутия, Россия): широта 63.33 долгота 141.70 высота над уровнем моря 777 м.

В архиве по умолчанию представлена погода в Агаякане за последнюю неделю. Архивные данные за месяц целиком и за предыдущие месяцы, начиная с января 2011 года, Вы можете получить, выбрав интересующий диапазон дат из раскрывающегося списка и нажав кнопку "Ввод!".

Внимание! Время в таблицах - всемирное. Для получения местного времени необходимо прибавить поправку, которая в Агаякане равна 10 ч.

Смотрите также архив погоды в соседних городах и на ближайших метеорологических станциях:

Погода в Оймяконе (Якутия, Россия) (71 км)
Погода в Юртах (Якутия, Россия) (80 км)
Погода в Восточной (Якутия, Россия) (106 км)
Погода в Усть-Нере (Якутия, Россия) (150 км)
Погода в Делянкире (Якутия, Россия) (201 км)
Погода в Теплом Ключе (Якутия, Россия) (254 км)
Погода в Уеге (Хабаровский край, Россия) (295 км)
Погода в Томпо (Якутия, Россия) (299 км)
Погода в Сусумане (Магаданская область, Россия) (328 км)
Погода в Колымской (Магаданская область, Россия) (344 км)

Пояснения к столбцам:

Ветер - указаны скорость ветра в м/с - средняя за 10 мин, порывы в срок и между сроками (в фигурных скобках) и направление, откуда дует ветер: С - северный, СВ - северо-восточный, В - восточный, ЮВ - юго-восточный, Ю - южный, ЮЗ - юго-западный, З - западный, СЗ - северо-западный.
Видимость - горизонтальная дальность видимости в метрах или километрах. При видимости от 1 до 10 км при отсутствии осадков обычно наблюдается дымка, при ухудшении видимости до 1 км и менее - туман. В сухую погоду видимость может ухудшаться дымом, пылью или мглою.
Явления - указаны атмосферные явления, наблюдавшиеся в срок или в последний час перед сроком; фигурными скобками обозначены явления, наблюдавшиеся между сроками (за 1-3 часа до срока); квадратными скобками обозначены град или гололедные отложения с указанием их диаметра в мм.
Облачность - указаны через наклонную черту общая и нижняя облачность в баллах и высота нижней границы облаков в метрах; квадратными скобками обозначены формы облаков: Ci - перистые, Cs - перисто-слоистые, Cc - перисто-кучевые, Ac - высококучевые, As - высокослоистые, Sc - слоисто-кучевые, Ns - слоисто-дождевые, Cu - кучевые, Cb - кучево-дождевые. Подробнее классификацию облаков см. в Атласе облаков (PDF).
T - Температура воздуха - температура, измеренная на высоте 2 м над землей.
Td - Температура точки росы - температура, при понижении до которой содержащийся в воздухе водяной пар достигнет насыщения.
f - Относительная влажность воздуха - влажноcть воздуха, измеренная на высоте 2 м над землей.
Te - Эффективная температура - температура, которую ощущает одетый по сезону человек в тени. Характеристика душности погоды. При расчете учитывается влияние влажности воздуха и скорости ветра на теплоощущения человека.
Tes - Эффективная температура на солнце - температура, которую ощущает человек, с поправкой на солнечный нагрев. Характеристика знойности погоды. Зависит от высоты солнца над горизонтом, облачности и скорости ветра. Ночью, в пасмурную погоду, а также при ветре 12 м/с и более поправка равна нулю.
P - Атмосферное давление - приведенное к уровню моря атмосферное давление.
Po - Атмосферное давление - измеренное на уровне метеостанции атмосферное давление.
Tmin - Минимальная температура - минимум температуры воздуха на высоте 2 м над землей.
Tmax - Максимальная температура - максимум температуры воздуха на высоте 2 м над землей.
R - Количество осадков - Количество выпавших осадков за период времени, мм. При наведении курсора мыши на число - период времени, за который выпало указанное количество осадков.
R24 - Количество осадков - Количество выпавших осадков за 24 часа, мм.
S - Снежный покров - Высота снежного покрова, см. При наведении курсора мыши на число - состояние снежного покрова и степень покрытия местности в баллах.